TGM annuale;;;;;;;;;;;;;;;;TGM annuale;;;;;;;;;;;;;;;;TGM annuale;;;;;;;;;;;;;;
Tratta nr.36 SR222, Km 58.000, Monteriggioni(SI) (flussi ascendente/discendente);;;;;;;;;;;;;;;;Tratta nr.36 SR222, Km 58.000, Monteriggioni(SI) (flusso ascendente);;;;;;;;;;;;;;;;Tratta nr.36 SR222, Km 58.000, Monteriggioni(SI) (flusso discendente);;;;;;;;;;;;;;
Anno;01 Motocicli;02 Auto e monovolume;03 Auto e monovolume con rimorchio;04 Furgoncini e camioncini;05 Camion medi;06 Camion grandi;07 Autotreni;08 Autoarticolati;09 Autobus;10 Veicoli non classificati;Totale;Feriali;Festivi;Prefestivi;;Anno;01 Motocicli;02 Auto e monovolume;03 Auto e monovolume con rimorchio;04 Furgoncini e camioncini;05 Camion medi;06 Camion grandi;07 Autotreni;08 Autoarticolati;09 Autobus;10 Veicoli non classificati;Totale;Feriali;Festivi;Prefestivi;;Anno;01 Motocicli;02 Auto e monovolume;03 Auto e monovolume con rimorchio;04 Furgoncini e camioncini;05 Camion medi;06 Camion grandi;07 Autotreni;08 Autoarticolati;09 Autobus;10 Veicoli non classificati;Totale;Feriali;Festivi;Prefestivi
2019;189;4842;2;193;20;6;32;2;31;0;5316;5746;3911;4917;;2019;101;2566;1;108;11;4;15;1;15;0;2822;3081;1987;2570;;2019;88;2276;1;85;9;2;16;1;15;0;2494;2665;1924;2347
;;;;;;;;;;;;;;;;;;;;;;;;;;;;;;;;;;;;;;;;;;;;;;
Tabella flussi 2019;;;;;;;;;;;;;;;;Tabella flussi 2019;;;;;;;;;;;;;;;;Tabella flussi 2019;;;;;;;;;;;;;;
Tratta nr.36 SR222, Km 58.000, Monteriggioni(SI) (flussi ascendente/discendente);;;;;;;;;;;;;;;;Tratta nr.36 SR222, Km 58.000, Monteriggioni(SI) (flusso ascendente);;;;;;;;;;;;;;;;Tratta nr.36 SR222, Km 58.000, Monteriggioni(SI) (flusso discendente);;;;;;;;;;;;;;
;Traffico Totale;;;;;;;;;;;Traffico Med.Orario 06:00 - 20:00;Traffico Ora di punta;;;;Traffico Totale;;;;;;;;;;;Traffico Med.Orario 06:00 - 20:00;Traffico Ora di punta;;;;Traffico Totale;;;;;;;;;;;Traffico Med.Orario 06:00 - 20:00;Traffico Ora di punta;
Giorno;01 Motocicli;02 Auto e monovolume;03 Auto e monovolume con rimorchio;04 Furgoncini e camioncini;05 Camion medi;06 Camion grandi;07 Autotreni;08 Autoarticolati;09 Autobus;10 Veicoli non classificati;Totale;Totale;Ora di punta;Flusso totale ora di punta;;Giorno;01 Motocicli;02 Auto e monovolume;03 Auto e monovolume con rimorchio;04 Furgoncini e camioncini;05 Camion medi;06 Camion grandi;07 Autotreni;08 Autoarticolati;09 Autobus;10 Veicoli non classificati;Totale;Totale;Ora di punta;Flusso totale ora di punta;;Giorno;01 Motocicli;02 Auto e monovolume;03 Auto e monovolume con rimorchio;04 Furgoncini e camioncini;05 Camion medi;06 Camion grandi;07 Autotreni;08 Autoarticolati;09 Autobus;10 Veicoli non classificati;Totale;Totale;Ora di punta;Flusso totale ora di punta
01/01/2019;107;3218;0;60;6;1;9;1;4;0;3406;168;16;273;;01/01/2019;74;1583;0;33;3;1;2;1;2;0;1699;90;16;162;;01/01/2019;33;1635;0;27;3;0;7;0;2;0;1707;78;18;132
02/01/2019;67;4429;3;156;15;4;21;1;31;0;4727;302;8;390;;02/01/2019;40;2340;2;76;11;3;11;1;15;0;2499;164;8;317;;02/01/2019;27;2089;1;80;4;1;10;0;16;0;2228;138;18;229
03/01/2019;83;4678;3;172;12;8;16;1;32;0;5005;316;8;411;;03/01/2019;61;2444;1;90;8;5;11;1;16;0;2637;172;8;334;;03/01/2019;22;2234;2;82;4;3;5;0;16;0;2368;145;18;263
04/01/2019;69;4731;4;165;13;1;15;0;32;0;5030;315;8;405;;04/01/2019;43;2478;2;93;7;1;8;0;16;0;2648;170;8;323;;04/01/2019;26;2253;2;72;6;0;7;0;16;0;2382;145;18;240
05/01/2019;67;4040;5;91;4;4;17;0;28;0;4256;256;11;351;;05/01/2019;42;2062;3;52;1;2;8;0;14;0;2184;137;10;210;;05/01/2019;25;1978;2;39;3;2;9;0;14;0;2072;119;12;206
06/01/2019;90;3345;1;42;6;0;14;1;4;0;3503;206;12;337;;06/01/2019;66;1661;0;28;5;0;5;0;2;0;1767;110;16;179;;06/01/2019;24;1684;1;14;1;0;9;1;2;0;1736;96;12;194
07/01/2019;56;5247;2;177;24;6;13;2;40;0;5567;358;8;651;;07/01/2019;39;2813;1;105;10;6;7;1;20;0;3002;200;8;559;;07/01/2019;17;2434;1;72;14;0;6;1;20;0;2565;158;19;289
08/01/2019;63;4946;0;207;21;10;20;0;41;0;5308;342;8;604;;08/01/2019;42;2633;0;120;12;6;11;0;20;0;2844;190;8;500;;08/01/2019;21;2313;0;87;9;4;9;0;21;0;2464;153;19;265
09/01/2019;62;5123;0;221;26;0;26;4;41;0;5503;350;8;613;;09/01/2019;44;2680;0;124;15;0;16;2;20;0;2901;192;8;514;;09/01/2019;18;2443;0;97;11;0;10;2;21;0;2602;158;18;290
10/01/2019;91;5309;3;195;20;9;23;2;37;0;5689;361;8;591;;10/01/2019;60;2791;2;112;11;6;10;1;18;0;3011;198;8;497;;10/01/2019;31;2518;1;83;9;3;13;1;19;0;2678;163;18;296
11/01/2019;68;5352;1;168;21;5;24;1;39;0;5679;360;8;634;;11/01/2019;43;2847;1;90;13;3;12;0;20;0;3029;198;8;524;;11/01/2019;25;2505;0;78;8;2;12;1;19;0;2650;162;18;292
12/01/2019;75;4311;1;106;14;6;19;0;32;0;4564;275;12;363;;12/01/2019;44;2244;0;60;10;5;8;0;16;0;2387;149;16;219;;12/01/2019;31;2067;1;46;4;1;11;0;16;0;2177;126;13;216
13/01/2019;69;3263;2;66;4;2;14;1;3;0;3424;196;12;291;;13/01/2019;50;1602;1;35;3;2;8;0;1;0;1702;105;16;160;;13/01/2019;19;1661;1;31;1;0;6;1;2;0;1722;92;12;162
14/01/2019;108;5248;2;191;20;11;20;1;40;0;5641;360;8;689;;14/01/2019;73;2837;1;106;9;7;10;1;20;0;3064;202;8;569;;14/01/2019;35;2411;1;85;11;4;10;0;20;0;2577;158;19;298
15/01/2019;104;5286;1;183;22;9;20;3;39;0;5667;359;8;646;;15/01/2019;70;2828;1;101;14;5;7;2;20;0;3048;200;8;548;;15/01/2019;34;2458;0;82;8;4;13;1;19;0;2619;159;18;289
16/01/2019;108;5220;1;187;21;7;17;0;39;0;5600;352;8;659;;16/01/2019;70;2794;1;110;9;4;10;0;19;0;3017;198;8;566;;16/01/2019;38;2426;0;77;12;3;7;0;20;0;2583;154;18;265
17/01/2019;57;5119;1;166;25;18;15;1;38;0;5440;345;8;641;;17/01/2019;40;2768;0;101;14;9;11;1;19;0;2963;196;8;549;;17/01/2019;17;2351;1;65;11;9;4;0;19;0;2477;149;18;279
18/01/2019;66;5326;0;178;18;7;17;0;38;0;5650;357;8;628;;18/01/2019;46;2839;0;104;12;4;8;0;18;0;3031;197;8;528;;18/01/2019;20;2487;0;74;6;3;9;0;20;0;2619;160;18;254
19/01/2019;83;4329;5;117;8;5;16;0;30;0;4593;275;11;364;;19/01/2019;54;2245;2;63;4;3;9;0;16;0;2396;149;11;191;;19/01/2019;29;2084;3;54;4;2;7;0;14;0;2197;126;12;212
20/01/2019;69;3293;1;69;7;1;13;1;4;0;3458;205;16;334;;20/01/2019;41;1634;1;38;6;1;6;1;2;0;1730;109;16;213;;20/01/2019;28;1659;0;31;1;0;7;0;2;0;1728;96;12;171
21/01/2019;61;5186;2;151;20;9;18;3;32;0;5482;355;8;666;;21/01/2019;46;2780;1;86;13;5;10;0;15;0;2956;197;8;572;;21/01/2019;15;2406;1;65;7;4;8;3;17;0;2526;157;19;274
22/01/2019;31;3514;0;163;14;6;17;1;34;0;3780;247;8;471;;22/01/2019;29;1874;0;91;10;5;7;1;17;0;2034;137;8;402;;22/01/2019;2;1640;0;72;4;1;10;0;17;0;1746;110;17;166
23/01/2019;42;4166;2;150;24;6;15;0;39;0;4444;282;8;415;;23/01/2019;33;2198;1;96;15;3;6;0;20;0;2372;155;8;338;;23/01/2019;9;1968;1;54;9;3;9;0;19;0;2072;127;18;236
24/01/2019;76;5153;0;182;21;7;18;2;41;0;5500;349;8;648;;24/01/2019;50;2746;0;100;10;4;6;1;20;0;2937;193;8;541;;24/01/2019;26;2407;0;82;11;3;12;1;21;0;2563;156;18;277
25/01/2019;70;5315;0;191;33;6;19;2;38;0;5674;354;8;590;;25/01/2019;49;2825;0;104;16;4;8;1;18;0;3025;195;8;489;;25/01/2019;21;2490;0;87;17;2;11;1;20;0;2649;159;19;265
26/01/2019;94;4266;6;96;17;10;19;3;33;0;4544;271;11;360;;26/01/2019;60;2197;2;58;8;7;8;2;17;0;2359;148;10;200;;26/01/2019;34;2069;4;38;9;3;11;1;16;0;2185;123;12;206
27/01/2019;77;3249;0;58;4;0;10;0;4;0;3402;197;12;335;;27/01/2019;54;1639;0;33;2;0;6;0;2;0;1736;104;10;155;;27/01/2019;23;1610;0;25;2;0;4;0;2;0;1666;93;12;181
28/01/2019;72;5085;0;178;17;8;18;2;39;0;5419;345;8;618;;28/01/2019;50;2694;0;104;9;5;9;1;18;0;2890;192;8;530;;28/01/2019;22;2391;0;74;8;3;9;1;21;0;2529;153;18;261
29/01/2019;78;5213;0;216;36;11;18;1;38;0;5611;356;8;605;;29/01/2019;53;2794;0;124;22;7;10;1;20;0;3031;198;8;510;;29/01/2019;25;2419;0;92;14;4;8;0;18;0;2580;158;19;264
30/01/2019;44;3618;0;184;36;4;14;3;30;0;3933;264;8;595;;30/01/2019;37;2013;0;105;20;1;5;2;14;0;2197;151;8;498;;30/01/2019;7;1605;0;79;16;3;9;1;16;0;1736;114;12;217
31/01/2019;19;2580;0;136;10;8;11;2;37;0;2803;176;18;281;;31/01/2019;12;1325;0;76;7;5;3;0;18;0;1446;94;8;175;;31/01/2019;7;1255;0;60;3;3;8;2;19;0;1357;82;18;183
01/02/2019;50;5014;0;163;24;11;14;0;36;0;5312;335;8;542;;01/02/2019;37;2644;0;87;14;7;11;0;18;0;2818;183;8;436;;01/02/2019;13;2370;0;76;10;4;3;0;18;0;2494;152;19;266
02/02/2019;41;4053;0;99;15;4;19;0;32;0;4263;254;11;363;;02/02/2019;35;2089;0;56;9;2;6;0;16;0;2213;135;11;189;;02/02/2019;6;1964;0;43;6;2;13;0;16;0;2050;119;12;226
03/02/2019;43;3276;1;58;6;1;8;0;4;0;3397;196;12;318;;03/02/2019;33;1638;0;31;3;0;5;0;2;0;1712;106;17;183;;03/02/2019;10;1638;1;27;3;1;3;0;2;0;1685;90;12;185
04/02/2019;103;5193;0;194;39;5;16;1;38;0;5589;357;8;614;;04/02/2019;69;2794;0;109;21;4;6;1;19;0;3023;200;8;524;;04/02/2019;34;2399;0;85;18;1;10;0;19;0;2566;157;19;291
05/02/2019;90;5329;0;197;32;6;22;0;37;0;5713;366;8;638;;05/02/2019;63;2872;0;105;20;3;12;0;18;0;3093;204;8;534;;05/02/2019;27;2457;0;92;12;3;10;0;19;0;2620;161;19;285
06/02/2019;120;5243;2;186;28;4;19;3;39;0;5644;357;8;642;;06/02/2019;76;2801;1;104;19;4;8;2;20;0;3035;199;8;542;;06/02/2019;44;2442;1;82;9;0;11;1;19;0;2609;158;19;294
07/02/2019;98;5255;3;233;19;9;13;2;39;0;5671;361;8;622;;07/02/2019;61;2798;3;131;11;6;5;0;20;0;3035;200;8;520;;07/02/2019;37;2457;0;102;8;3;8;2;19;0;2636;161;18;266
08/02/2019;78;5401;1;189;26;6;17;2;35;0;5755;359;8;634;;08/02/2019;46;2895;0;100;12;4;7;1;18;0;3083;200;8;516;;08/02/2019;32;2506;1;89;14;2;10;1;17;0;2672;160;19;265
09/02/2019;94;4322;0;119;14;5;16;0;32;0;4602;277;12;378;;09/02/2019;66;2239;0;70;7;5;5;0;16;0;2408;151;10;219;;09/02/2019;28;2083;0;49;7;0;11;0;16;0;2194;126;12;226
10/02/2019;80;3175;0;57;2;0;7;0;3;0;3324;195;12;310;;10/02/2019;53;1582;0;32;2;0;6;0;1;0;1676;105;10;149;;10/02/2019;27;1593;0;25;0;0;1;0;2;0;1648;91;12;177
11/02/2019;91;5120;0;192;21;11;13;4;42;0;5494;350;8;652;;11/02/2019;53;2735;0;114;12;6;8;2;21;0;2951;196;8;535;;11/02/2019;38;2385;0;78;9;5;5;2;21;0;2543;155;18;265
12/02/2019;122;5211;0;226;22;15;21;1;41;0;5659;361;8;651;;12/02/2019;83;2779;0;124;14;10;13;0;20;0;3043;201;8;533;;12/02/2019;39;2432;0;102;8;5;8;1;21;0;2616;160;18;277
13/02/2019;94;5207;0;206;26;8;28;2;40;0;5611;354;8;661;;13/02/2019;47;2779;0;124;17;5;15;1;20;0;3008;198;8;548;;13/02/2019;47;2428;0;82;9;3;13;1;20;0;2603;156;18;275
14/02/2019;118;5429;2;203;29;9;23;1;38;0;5852;372;8;627;;14/02/2019;75;2884;1;115;19;6;12;1;18;0;3131;206;8;516;;14/02/2019;43;2545;1;88;10;3;11;0;20;0;2721;166;19;320
15/02/2019;146;5211;0;228;17;7;19;1;40;0;5669;357;8;605;;15/02/2019;80;2800;0;132;10;6;7;1;20;0;3056;197;8;491;;15/02/2019;66;2411;0;96;7;1;12;0;20;0;2613;159;19;268
16/02/2019;205;4394;0;123;14;2;20;1;34;0;4793;288;12;383;;16/02/2019;102;2299;0;72;9;1;9;0;17;0;2509;156;16;196;;16/02/2019;103;2095;0;51;5;1;11;1;17;0;2284;132;12;217
17/02/2019;212;3566;0;55;2;2;13;0;4;0;3854;231;17;374;;17/02/2019;129;1767;0;27;2;2;3;0;2;0;1932;125;17;226;;17/02/2019;83;1799;0;28;0;0;10;0;2;0;1922;106;12;181
18/02/2019;112;5124;0;192;35;9;16;0;37;0;5525;352;8;640;;18/02/2019;69;2719;0;104;18;6;10;0;19;0;2945;195;8;544;;18/02/2019;43;2405;0;88;17;3;6;0;18;0;2580;157;19;305
19/02/2019;116;5113;2;197;23;5;28;0;40;0;5524;355;8;646;;19/02/2019;67;2765;1;109;13;3;15;0;21;0;2994;198;8;540;;19/02/2019;49;2348;1;88;10;2;13;0;19;0;2530;156;19;303
20/02/2019;122;5260;0;210;25;2;21;0;40;0;5680;359;8;669;;20/02/2019;77;2831;0;118;13;2;9;0;20;0;3070;202;8;570;;20/02/2019;45;2429;0;92;12;0;12;0;20;0;2610;157;18;286
21/02/2019;141;5276;2;200;25;14;20;0;38;0;5716;363;8;616;;21/02/2019;90;2802;2;121;14;9;14;0;18;0;3070;203;8;527;;21/02/2019;51;2474;0;79;11;5;6;0;20;0;2646;160;18;263
22/02/2019;123;5500;1;227;29;6;18;2;38;0;5944;375;8;632;;22/02/2019;76;2944;1;126;14;6;10;1;18;0;3196;208;8;520;;22/02/2019;47;2556;0;101;15;0;8;1;20;0;2748;167;18;269
23/02/2019;122;4615;1;123;18;11;14;2;33;0;4939;294;19;389;;23/02/2019;81;2353;0;67;9;7;10;1;17;0;2545;158;10;221;;23/02/2019;41;2262;1;56;9;4;4;1;16;0;2394;135;13;225
24/02/2019;127;3321;1;48;3;2;16;0;4;0;3522;204;12;307;;24/02/2019;74;1682;1;31;1;1;11;0;2;0;1803;111;11;181;;24/02/2019;53;1639;0;17;2;1;5;0;2;0;1719;94;12;176
25/02/2019;123;5205;2;181;27;14;21;2;40;0;5615;359;8;750;;25/02/2019;83;2816;1;115;14;9;13;0;20;0;3071;203;8;643;;25/02/2019;40;2389;1;66;13;5;8;2;20;0;2544;155;19;281
26/02/2019;110;5272;1;203;21;5;22;0;40;0;5674;362;8;641;;26/02/2019;52;2823;0;121;13;3;9;0;20;0;3041;200;8;529;;26/02/2019;58;2449;1;82;8;2;13;0;20;0;2633;162;18;304
27/02/2019;149;5315;0;224;27;5;16;1;38;0;5775;364;8;651;;27/02/2019;92;2840;0;129;16;5;10;1;19;0;3112;204;8;544;;27/02/2019;57;2475;0;95;11;0;6;0;19;0;2663;161;19;285
28/02/2019;124;5259;0;208;30;7;14;0;40;0;5682;355;8;628;;28/02/2019;72;2797;0;120;15;6;6;0;20;0;3036;198;8;516;;28/02/2019;52;2462;0;88;15;1;8;0;20;0;2646;157;19;284
01/03/2019;102;5260;2;182;29;3;16;0;41;0;5635;354;8;629;;01/03/2019;55;2816;1;103;13;3;8;0;21;0;3020;198;8;523;;01/03/2019;47;2444;1;79;16;0;8;0;20;0;2615;157;18;255
02/03/2019;205;4398;0;119;13;2;16;1;33;0;4787;287;12;383;;02/03/2019;114;2294;0;68;8;2;12;1;17;0;2516;157;10;207;;02/03/2019;91;2104;0;51;5;0;4;0;16;0;2271;129;12;226
03/03/2019;194;3608;2;58;5;2;23;0;5;0;3897;233;17;341;;03/03/2019;127;1794;1;29;4;2;10;0;3;0;1970;127;17;196;;03/03/2019;67;1814;1;29;1;0;13;0;2;0;1927;106;19;185
04/03/2019;99;5426;0;189;27;4;18;1;39;0;5803;374;8;676;;04/03/2019;56;2904;0;104;17;2;12;0;19;0;3114;207;8;564;;04/03/2019;43;2522;0;85;10;2;6;1;20;0;2689;167;19;299
05/03/2019;130;5417;2;201;44;6;19;1;40;0;5860;373;8;664;;05/03/2019;84;2901;1;119;24;4;8;1;21;0;3163;209;8;546;;05/03/2019;46;2516;1;82;20;2;11;0;19;0;2697;164;19;292
06/03/2019;155;5283;0;171;18;7;16;1;41;0;5692;360;8;675;;06/03/2019;83;2832;0;95;10;4;9;1;20;0;3054;202;8;572;;06/03/2019;72;2451;0;76;8;3;7;0;21;0;2638;158;19;287
07/03/2019;112;5462;4;226;21;5;25;2;40;0;5897;375;8;673;;07/03/2019;74;2849;2;134;11;3;17;2;20;0;3112;204;8;554;;07/03/2019;38;2613;2;92;10;2;8;0;20;0;2785;171;18;403
08/03/2019;167;5487;1;237;25;3;23;0;40;0;5983;376;8;659;;08/03/2019;100;2932;1;148;12;2;17;0;19;0;3231;210;8;564;;08/03/2019;67;2555;0;89;13;1;6;0;21;0;2752;166;18;292
09/03/2019;271;4716;0;165;19;5;17;0;34;0;5227;315;18;443;;09/03/2019;149;2447;0;88;15;4;6;0;18;0;2727;172;9;234;;09/03/2019;122;2269;0;77;4;1;11;0;16;0;2500;144;16;235
10/03/2019;163;3385;4;82;9;4;8;0;4;0;3659;215;11;314;;10/03/2019;89;1720;2;49;6;3;3;0;2;0;1874;118;11;175;;10/03/2019;74;1665;2;33;3;1;5;0;2;0;1785;97;12;155
11/03/2019;102;5161;5;224;22;4;22;1;38;0;5579;359;8;676;;11/03/2019;71;2779;1;133;12;4;16;1;20;0;3037;202;8;576;;11/03/2019;31;2382;4;91;10;0;6;0;18;0;2542;157;19;278
12/03/2019;146;5557;1;243;20;7;28;4;39;0;6045;384;8;699;;12/03/2019;82;2951;0;132;13;5;16;3;19;0;3221;212;8;597;;12/03/2019;64;2606;1;111;7;2;12;1;20;0;2824;172;19;329
13/03/2019;112;5278;2;226;15;3;26;2;40;0;5704;363;8;684;;13/03/2019;66;2799;1;134;7;1;14;2;20;0;3044;200;8;564;;13/03/2019;46;2479;1;92;8;2;12;0;20;0;2660;163;18;284
14/03/2019;143;5443;2;190;30;9;24;0;38;0;5879;372;8;649;;14/03/2019;82;2952;1;118;16;6;13;0;19;0;3207;211;8;562;;14/03/2019;61;2491;1;72;14;3;11;0;19;0;2672;160;19;303
15/03/2019;133;5493;4;184;21;8;30;1;39;0;5913;372;8;647;;15/03/2019;79;2970;3;103;10;6;15;0;19;0;3205;208;8;548;;15/03/2019;54;2523;1;81;11;2;15;1;20;0;2708;164;18;296
16/03/2019;290;4625;6;148;8;11;18;1;33;0;5140;308;12;397;;16/03/2019;155;2390;3;80;4;8;10;0;17;0;2667;167;15;222;;16/03/2019;135;2235;3;68;4;3;8;1;16;0;2473;141;12;222
17/03/2019;217;3766;2;85;6;1;11;1;5;0;4094;241;17;373;;17/03/2019;116;1891;1;45;5;1;4;1;3;0;2067;129;17;208;;17/03/2019;101;1875;1;40;1;0;7;0;2;0;2027;112;19;196
18/03/2019;71;5224;0;210;21;10;21;1;39;0;5597;356;8;642;;18/03/2019;42;2823;0;123;13;4;10;1;19;0;3035;201;8;541;;18/03/2019;29;2401;0;87;8;6;11;0;20;0;2562;155;18;274
19/03/2019;114;5544;3;208;21;7;16;2;40;0;5955;378;8;734;;19/03/2019;77;2976;2;121;11;4;10;1;20;0;3222;214;8;617;;19/03/2019;37;2568;1;87;10;3;6;1;20;0;2733;164;19;294
20/03/2019;116;5354;1;218;16;4;22;2;40;0;5773;366;8;642;;20/03/2019;66;2856;1;129;10;3;13;1;20;0;3099;205;8;554;;20/03/2019;50;2498;0;89;6;1;9;1;20;0;2674;161;19;300
21/03/2019;130;5605;0;189;22;10;17;2;39;0;6014;380;8;673;;21/03/2019;74;2980;0;105;12;7;8;2;19;0;3207;210;8;570;;21/03/2019;56;2625;0;84;10;3;9;0;20;0;2807;170;19;329
22/03/2019;177;4813;3;206;20;6;26;1;34;0;5286;325;8;625;;22/03/2019;89;2608;1;119;12;4;9;0;17;0;2859;182;8;532;;22/03/2019;88;2205;2;87;8;2;17;1;17;0;2427;143;18;271
23/03/2019;304;4659;0;156;12;8;30;0;28;0;5197;311;18;394;;23/03/2019;171;2430;0;90;6;6;10;0;12;0;2725;171;9;231;;23/03/2019;133;2229;0;66;6;2;20;0;16;0;2472;140;12;219
24/03/2019;338;3801;4;91;3;1;14;0;5;0;4257;252;17;385;;24/03/2019;165;1932;2;52;1;1;12;0;2;0;2167;136;17;218;;24/03/2019;173;1869;2;39;2;0;2;0;3;0;2090;117;19;206
25/03/2019;197;5143;5;226;21;5;32;1;39;0;5669;364;8;666;;25/03/2019;105;2775;2;124;10;3;18;1;20;0;3058;202;8;556;;25/03/2019;92;2368;3;102;11;2;14;0;19;0;2611;162;19;318
26/03/2019;84;5317;1;248;17;8;31;2;38;0;5746;364;8;664;;26/03/2019;48;2855;0;138;8;4;16;1;19;0;3089;203;8;541;;26/03/2019;36;2462;1;110;9;4;15;1;19;0;2657;162;18;298
27/03/2019;126;5379;4;219;20;3;36;2;39;0;5828;370;8;666;;27/03/2019;70;2862;1;125;11;1;17;0;20;0;3107;205;8;558;;27/03/2019;56;2517;3;94;9;2;19;2;19;0;2721;165;18;294
28/03/2019;170;5437;3;241;40;6;31;1;39;0;5968;376;8;631;;28/03/2019;101;2938;1;130;21;4;16;0;20;0;3231;213;8;525;;28/03/2019;69;2499;2;111;19;2;15;1;19;0;2737;164;19;311
29/03/2019;196;5467;5;250;19;7;31;3;35;0;6013;379;8;645;;29/03/2019;115;2965;2;148;9;5;20;1;17;0;3282;213;8;535;;29/03/2019;81;2502;3;102;10;2;11;2;18;0;2731;166;18;281
30/03/2019;341;4800;1;166;23;8;28;0;32;0;5399;322;18;416;;30/03/2019;193;2490;0;98;14;4;14;0;16;0;2829;175;10;230;;30/03/2019;148;2310;1;68;9;4;14;0;16;0;2570;147;19;232
31/03/2019;290;3763;8;73;3;2;17;1;5;0;4162;241;19;394;;31/03/2019;147;1924;4;45;1;1;8;1;2;0;2133;131;11;191;;31/03/2019;143;1839;4;28;2;1;9;0;3;0;2029;110;19;219
01/04/2019;176;5214;1;223;24;3;39;1;40;0;5721;361;8;677;;01/04/2019;104;2821;1;119;15;2;19;1;20;0;3102;204;8;558;;01/04/2019;72;2393;0;104;9;1;20;0;20;0;2619;157;19;295
02/04/2019;168;5422;1;233;24;6;31;4;40;0;5929;374;8;663;;02/04/2019;102;2953;1;135;13;4;12;2;21;0;3243;212;8;547;;02/04/2019;66;2469;0;98;11;2;19;2;19;0;2686;162;19;305
03/04/2019;87;5420;1;272;27;5;33;2;41;0;5888;371;8;667;;03/04/2019;49;2878;0;154;12;4;17;1;20;0;3135;207;8;549;;03/04/2019;38;2542;1;118;15;1;16;1;21;0;2753;164;18;295
04/04/2019;52;5324;0;213;22;8;37;0;41;0;5697;358;8;690;;04/04/2019;35;2849;0;124;13;5;19;0;20;0;3065;199;8;588;;04/04/2019;17;2475;0;89;9;3;18;0;21;0;2632;159;17;266
05/04/2019;88;5756;0;236;23;4;38;3;41;0;6189;385;8;649;;05/04/2019;50;3115;0;141;11;3;18;1;20;0;3359;216;8;539;;05/04/2019;38;2641;0;95;12;1;20;2;21;0;2830;169;18;306
06/04/2019;244;4844;1;159;16;8;30;2;34;0;5338;315;10;403;;06/04/2019;127;2491;0;82;10;4;17;1;19;0;2751;171;10;220;;06/04/2019;117;2353;1;77;6;4;13;1;15;0;2587;145;19;232
07/04/2019;112;3799;8;95;2;0;21;0;4;0;4041;236;18;345;;07/04/2019;80;1938;4;49;1;0;6;0;2;0;2080;129;17;221;;07/04/2019;32;1861;4;46;1;0;15;0;2;0;1961;107;12;179
08/04/2019;129;5513;2;230;24;9;37;1;36;0;5981;381;8;667;;08/04/2019;86;2955;1;131;10;7;18;0;18;0;3226;213;8;562;;08/04/2019;43;2558;1;99;14;2;19;1;18;0;2755;168;19;327
09/04/2019;150;5557;0;234;28;3;38;0;39;0;6049;384;8;629;;09/04/2019;76;2968;0;124;17;3;23;0;20;0;3231;212;8;507;;09/04/2019;74;2589;0;110;11;0;15;0;19;0;2818;173;19;332
10/04/2019;128;5526;3;228;28;2;38;3;34;0;5990;377;8;703;;10/04/2019;68;2962;2;131;17;1;14;3;17;0;3215;212;8;596;;10/04/2019;60;2564;1;97;11;1;24;0;17;0;2775;165;19;306
11/04/2019;83;5476;5;218;31;3;34;0;40;0;5890;371;8;682;;11/04/2019;54;2946;3;132;19;1;18;0;19;0;3192;208;8;579;;11/04/2019;29;2530;2;86;12;2;16;0;21;0;2698;163;19;302
12/04/2019;129;5532;2;259;18;10;30;2;39;0;6021;376;8;666;;12/04/2019;71;3002;1;141;11;2;18;0;21;0;3267;212;8;561;;12/04/2019;58;2530;1;118;7;8;12;2;18;0;2754;164;18;283
13/04/2019;166;4734;3;159;15;7;26;0;32;0;5142;305;19;396;;13/04/2019;79;2434;2;87;11;5;16;0;17;0;2651;166;10;239;;13/04/2019;87;2300;1;72;4;2;10;0;15;0;2491;139;12;218
14/04/2019;71;3488;0;107;5;1;27;1;5;0;3705;214;12;409;;14/04/2019;52;1815;0;66;1;0;11;1;2;0;1948;119;12;229;;14/04/2019;19;1673;0;41;4;1;16;0;3;0;1757;96;12;180
15/04/2019;165;5622;1;247;19;6;37;2;41;0;6140;389;8;685;;15/04/2019;98;3042;1;142;10;4;18;1;20;0;3336;221;8;572;;15/04/2019;67;2580;0;105;9;2;19;1;21;0;2804;169;18;302
16/04/2019;176;5681;4;286;24;6;29;5;41;0;6252;394;8;673;;16/04/2019;96;3102;2;158;16;3;15;2;21;0;3415;223;8;566;;16/04/2019;80;2579;2;128;8;3;14;3;20;0;2837;171;18;329
17/04/2019;204;5895;2;249;25;5;38;1;37;0;6456;399;8;694;;17/04/2019;115;3200;1;138;14;2;22;1;18;0;3511;226;8;595;;17/04/2019;89;2695;1;111;11;3;16;0;19;0;2945;173;19;310
18/04/2019;250;5916;1;238;18;2;48;2;33;0;6508;401;8;589;;18/04/2019;136;3213;0;130;8;1;32;2;16;0;3538;227;8;506;;18/04/2019;114;2703;1;108;10;1;16;0;17;0;2970;174;19;320
19/04/2019;286;5725;3;273;13;6;33;1;30;0;6370;393;17;546;;19/04/2019;145;3102;2;170;7;5;17;0;15;0;3463;220;8;451;;19/04/2019;141;2623;1;103;6;1;16;1;15;0;2907;172;19;284
20/04/2019;452;4748;5;168;17;5;46;1;30;0;5472;329;18;439;;20/04/2019;229;2496;2;105;9;3;27;0;15;0;2886;177;10;234;;20/04/2019;223;2252;3;63;8;2;19;1;15;0;2586;151;18;243
21/04/2019;204;3595;4;91;7;0;24;0;4;0;3929;229;12;451;;21/04/2019;108;1915;3;46;3;0;11;0;2;0;2088;127;12;226;;21/04/2019;96;1680;1;45;4;0;13;0;2;0;1841;102;12;225
22/04/2019;176;3401;0;113;8;1;19;0;6;0;3724;227;16;336;;22/04/2019;85;1780;0;61;5;0;9;0;2;0;1942;122;11;186;;22/04/2019;91;1621;0;52;3;1;10;0;4;0;1782;105;18;178
23/04/2019;61;5028;0;211;26;10;28;1;33;0;5398;339;8;442;;23/04/2019;34;2715;0;128;13;7;12;1;17;0;2927;190;8;368;;23/04/2019;27;2313;0;83;13;3;16;0;16;0;2471;149;18;256
24/04/2019;196;5412;2;273;26;11;46;1;34;0;6001;375;8;500;;24/04/2019;105;2891;0;159;15;8;31;1;14;0;3224;207;8;386;;24/04/2019;91;2521;2;114;11;3;15;0;20;0;2777;167;19;293
25/04/2019;474;3750;1;108;9;3;30;1;10;0;4386;259;17;393;;25/04/2019;280;1973;0;60;8;3;16;1;5;0;2346;147;17;229;;25/04/2019;194;1777;1;48;1;0;14;0;5;0;2040;112;19;180
26/04/2019;195;5322;3;245;38;4;39;2;39;0;5887;366;8;469;;26/04/2019;120;2906;2;127;19;3;19;1;20;0;3217;206;8;359;;26/04/2019;75;2416;1;118;19;1;20;1;19;0;2670;160;18;247
27/04/2019;345;4618;2;169;22;7;24;2;31;0;5220;318;19;406;;27/04/2019;179;2474;1;99;13;6;15;1;15;0;2803;177;10;255;;27/04/2019;166;2144;1;70;9;1;9;1;16;0;2417;140;19;225
28/04/2019;164;3609;3;111;2;0;23;1;5;0;3918;229;11;339;;28/04/2019;83;1837;1;60;1;0;12;0;3;0;1997;124;11;202;;28/04/2019;81;1772;2;51;1;0;11;1;2;0;1921;104;19;176
29/04/2019;96;5453;2;243;22;7;37;1;37;0;5898;375;8;608;;29/04/2019;61;2933;1;135;11;3;17;0;19;0;3180;211;8;512;;29/04/2019;35;2520;1;108;11;4;20;1;18;0;2718;164;19;300
30/04/2019;216;5806;0;236;29;9;40;1;38;0;6375;397;8;638;;30/04/2019;110;3172;0;136;17;5;23;1;19;0;3483;223;8;526;;30/04/2019;106;2634;0;100;12;4;17;0;19;0;2892;174;19;307
01/05/2019;131;3646;2;118;5;1;24;2;1;0;3930;230;11;365;;01/05/2019;76;1857;2;73;4;1;13;1;0;0;2027;124;11;218;;01/05/2019;55;1789;0;45;1;0;11;1;1;0;1903;106;12;191
02/05/2019;185;5678;0;285;38;1;38;5;42;0;6272;393;8;614;;02/05/2019;96;3104;0;167;22;1;18;3;22;0;3433;223;8;501;;02/05/2019;89;2574;0;118;16;0;20;2;20;0;2839;170;18;329
03/05/2019;148;5737;5;258;23;6;38;0;40;0;6255;388;8;573;;03/05/2019;92;3115;3;143;10;5;13;0;18;0;3399;219;8;473;;03/05/2019;56;2622;2;115;13;1;25;0;22;0;2856;170;19;301
04/05/2019;156;4719;0;190;12;7;33;2;29;0;5148;307;19;415;;04/05/2019;95;2481;0;104;7;6;15;1;16;0;2725;166;9;224;;04/05/2019;61;2238;0;86;5;1;18;1;13;0;2423;141;19;231
05/05/2019;56;3494;1;86;9;0;21;0;6;0;3673;206;18;310;;05/05/2019;33;1753;0;46;6;0;8;0;2;0;1848;112;16;170;;05/05/2019;23;1741;1;40;3;0;13;0;4;0;1825;94;19;175
06/05/2019;109;5591;2;241;28;4;30;3;39;0;6047;385;8;677;;06/05/2019;60;3016;1;138;15;1;21;3;20;0;3275;217;8;569;;06/05/2019;49;2575;1;103;13;3;9;0;19;0;2772;169;19;301
07/05/2019;209;5672;6;260;39;8;39;9;37;0;6279;397;8;663;;07/05/2019;121;3018;3;148;20;6;18;5;20;0;3359;221;8;551;;07/05/2019;88;2654;3;112;19;2;21;4;17;0;2920;176;19;338